This demonstration page uses our WeatherBlox Daily Observations layout. Learn more.

Left ArrowRight Arrow

39.92423, -83.80882

Hourly Observations for July 17, 2019

Temp ( °F °C ) Dew Point ( °F °C ) Humidity (%) Winds ( mph kmh ) Pressure ( in mb ) Visibility ( mi km ) Precip ( " mm )
12:07 am 00:07 Cloudy with Nearby Thunderstorms 73 23 73 23 100 100 S 5 7 29.97 1015 9 14.48406 0.05 1.27
12:27 am 00:27 Cloudy 73 23 73 23 100 100 S 7 11 29.94 1014 10 16.0934 0.07 1.778
12:56 am 00:56 Mostly Clear with Light Rain 74 23.3 73 22.8 97 97 SSW 7 11 29.94 1014 10 16.0934 0.07 1.778
1:56 am 01:56 Clear 73 22.8 73 22.8 100 100 S 8 13 29.93 1014 10 16.0934 0.001 0.001
2:56 am 02:56 Mostly Cloudy 73 22.8 73 22.8 100 100 SSW 12 19 29.92 1013 10 16.0934 N/A
3:46 am 03:46 Cloudy 73 23 73 23 100 100 SSW 7 11 29.91 1013 10 16.0934 N/A
3:56 am 03:56 Cloudy 73 22.8 73 22.8 100 100 SSW 7 11 29.91 1013 10 16.0934 N/A
4:56 am 04:56 Cloudy 73 22.8 73 22.8 100 100 SW 13 20 29.91 1013 10 16.0934 N/A
5:24 am 05:24 Cloudy 72 22 72 22 100 100 SSW 7 11 29.91 1013 10 16.0934 N/A
5:56 am 05:56 Cloudy 72 22.2 72 22.2 100 100 SSW 9 15 29.9 1013 10 16.0934 N/A
6:40 am 06:40 Cloudy with Heavy Rain 72 22 72 22 100 100 SSW 7 11 29.88 1012 5 8.0467 0.05 1.27
6:56 am 06:56 Cloudy with Light Rain 71 21.7 71 21.7 100 100 S 8 13 29.89 1012 3 4.82802 0.13 3.302
7:56 am 07:56 Cloudy with Light Rain 72 22.2 72 22.2 100 100 SW 13 20 29.9 1012 10 16.0934 0.001 0.001
8:56 am 08:56 Cloudy with Light Rain 72 22.2 72 22.2 100 100 SSW 12 19 29.91 1013 6 9.65604 0.01 0.254
9:56 am 09:56 Cloudy with Light Rain 73 22.8 73 22.8 100 100 SW 10 17 29.91 1013 7 11.26538 0.01 0.254
10:13 am 10:13 Cloudy with Light Rain 73 23 73 23 100 100 SW 10 17 29.91 1013 2 3.21868 0.02 0.508
10:24 am 10:24 Cloudy with Light Rain 73 23 73 23 100 100 SW 10 17 29.91 1013 8 12.87472 0.02 0.508
10:56 am 10:56 Cloudy 75 23.9 75 23.9 100 100 WSW 7 11 29.91 1013 10 16.0934 0.02 0.508
11:31 am 11:31 Cloudy 79 26 75 24 89 89 WSW 12 19 29.88 1012 10 16.0934 N/A
11:56 am 11:56 Cloudy 79 26.1 76 24.4 90 90 W 12 19 29.92 1013 8 12.87472 N/A
12:18 pm 12:18 Mostly Cloudy 79 26 77 25 94 94 W 13 20 29.88 1012 10 16.0934 0.001 0.001
12:56 pm 12:56 Mostly Cloudy 81 27.2 76 24.4 85 85 W 14 22 29.92 1013 10 16.0934 0.001 0.001
1:56 pm 13:56 Cloudy 83 28.3 75 23.9 77 77 W 15 24 29.92 1013 10 16.0934 N/A
2:56 pm 14:56 Cloudy 84 28.9 75 23.9 74 74 W 10 17 29.91 1013 10 16.0934 N/A
3:20 pm 15:20 Partly Cloudy 84 29 75 24 74 74 W 10 17 29.88 1012 10 16.0934 N/A
3:56 pm 15:56 Mostly Sunny 85 29.4 74 23.3 70 70 NW 12 19 29.9 1012 10 16.0934 N/A
4:56 pm 16:56 Mostly Sunny 82 27.8 76 24.4 82 82 NW 12 19 29.89 1012 10 16.0934 0.001 0.001
5:56 pm 17:56 Sunny 84 28.9 75 23.9 74 74 WNW 12 19 29.89 1012 10 16.0934 N/A
6:56 pm 18:56 Sunny 84 28.9 75 23.9 74 74 WNW 12 19 29.89 1012 10 16.0934 N/A
7:56 pm 19:56 Sunny 82 27.8 74 23.3 77 77 NW 7 11 29.9 1013 10 16.0934 N/A
8:56 pm 20:56 Sunny 79 26.1 74 23.3 85 85 NW 7 11 29.92 1013 10 16.0934 N/A
9:56 pm 21:56 Clear 76 24.4 74 23.3 94 94 WNW 5 7 29.94 1014 10 16.0934 N/A
10:56 pm 22:56 Clear 75 23.9 75 23.9 100 100 W 5 7 29.95 1014 10 16.0934 N/A
11:56 pm 23:56 Clear 74 23.3 74 23.3 100 100 WNW 6 9 29.95 1014 10 16.0934 N/A

Powered by AerisWeather